| time (UTC) | temp F | wind direction | speed knots | gust knots | rain 1hr in | rain 24hr in | rain mn in | humidity % | barometer mb |
| 20260509211603 | 63 | 270 | 3.5 | 10.4 | 0.00 | 0.00 | 0.00 | 70 | 1002.4 |
| 20260509211103 | 63 | 284 | 2.6 | 8.7 | 0.00 | 0.00 | 0.00 | 71 | 1002.6 |
| 20260509210603 | 64 | 249 | 2.6 | 6.1 | 0.00 | 0.00 | 0.00 | 71 | 1002.7 |
| 20260509210104 | 64 | 299 | 3.5 | 8.7 | 0.00 | 0.00 | 0.00 | 71 | 1002.7 |
| 20260509205103 | 64 | 289 | 2.6 | 7.8 | 0.00 | 0.00 | 0.00 | 70 | 1002.7 |
| 20260509204104 | 64 | 281 | 4.3 | 8.7 | 0.00 | 0.00 | 0.00 | 71 | 1002.8 |
| 20260509203603 | 63 | 279 | 2.6 | 5.2 | 0.00 | 0.00 | 0.00 | 71 | 1002.7 |
| 20260509203103 | 63 | 285 | 3.5 | 8.7 | 0.00 | 0.00 | 0.00 | 69 | 1002.8 |
| 20260509202603 | 63 | 248 | 5.2 | 11.3 | 0.00 | 0.00 | 0.00 | 68 | 1002.7 |
| 20260509202103 | 64 | 277 | 4.3 | 12.2 | 0.00 | 0.00 | 0.00 | 68 | 1002.9 |
| 20260509201603 | 64 | 276 | 4.3 | 8.7 | 0.00 | 0.00 | 0.00 | 67 | 1002.8 |
| 20260509201103 | 64 | 270 | 4.3 | 8.7 | 0.00 | 0.00 | 0.00 | 67 | 1002.7 |
| 20260509200604 | 65 | 243 | 4.3 | 10.4 | 0.00 | 0.00 | 0.00 | 66 | 1002.7 |
| 20260509195103 | 66 | 236 | 4.3 | 11.3 | 0.00 | 0.00 | 0.00 | 66 | 1002.9 |
| 20260509194604 | 65 | 264 | 6.1 | 11.3 | 0.00 | 0.00 | 0.00 | 66 | 1003.0 |
| 20260509194104 | 65 | 276 | 4.3 | 8.7 | 0.00 | 0.00 | 0.00 | 67 | 1002.8 |
| 20260509192104 | 65 | 250 | 6.1 | 11.3 | 0.00 | 0.00 | 0.00 | 64 | 1003.4 |
| 20260509191604 | 65 | 281 | 4.3 | 12.2 | 0.00 | 0.00 | 0.00 | 66 | 1003.4 |
| 20260509191104 | 64 | 259 | 4.3 | 11.3 | 0.00 | 0.00 | 0.00 | 68 | 1003.5 |
| 20260509190603 | 64 | 252 | 4.3 | 7.8 | 0.00 | 0.00 | 0.00 | 68 | 1003.7 |
| 20260509190104 | 64 | 274 | 4.3 | 10.4 | 0.00 | 0.00 | 0.00 | 70 | 1003.7 |
| 20260509185603 | 64 | 276 | 5.2 | 11.3 | 0.00 | 0.00 | 0.00 | 68 | 1003.8 |
| 20260509184603 | 65 | 275 | 6.1 | 10.4 | 0.00 | 0.00 | 0.00 | 66 | 1003.7 |
| 20260509184104 | 65 | 263 | 6.1 | 13.0 | 0.00 | 0.00 | 0.00 | 66 | 1003.7 |
| 20260509183603 | 65 | 249 | 5.2 | 12.2 | 0.00 | 0.00 | 0.00 | 64 | 1003.8 |
| 20260509183103 | 66 | 244 | 3.5 | 7.0 | 0.00 | 0.00 | 0.00 | 68 | 1003.7 |
| 20260509182603 | 64 | 237 | 1.7 | 10.4 | 0.00 | 0.00 | 0.00 | 67 | 1003.7 |
| 20260509181603 | 66 | 272 | 5.2 | 12.2 | 0.00 | 0.00 | 0.00 | 67 | 1004.0 |
| 20260509181103 | 65 | 276 | 6.1 | 12.2 | 0.00 | 0.00 | 0.00 | 68 | 1003.9 |
| 20260509180603 | 65 | 266 | 5.2 | 10.4 | 0.00 | 0.00 | 0.00 | 69 | 1003.8 |
| 20260509180104 | 65 | 265 | 5.2 | 13.0 | 0.00 | 0.00 | 0.00 | 70 | 1003.8 |
| 20260509175603 | 64 | 242 | 4.3 | 13.0 | 0.00 | 0.00 | 0.00 | 70 | 1004.0 |
| 20260509175105 | 64 | 272 | 4.3 | 10.4 | 0.00 | 0.00 | 0.00 | 69 | 1004.1 |
| 20260509174604 | 65 | 260 | 2.6 | 8.7 | 0.00 | 0.00 | 0.00 | 70 | 1004.3 |
| 20260509174104 | 64 | 258 | 2.6 | 10.4 | 0.00 | 0.00 | 0.00 | 68 | 1004.5 |
| 20260509173604 | 64 | 264 | 6.1 | 15.6 | 0.00 | 0.00 | 0.00 | 69 | 1004.5 |
| 20260509173104 | 63 | 272 | 1.7 | 8.7 | 0.00 | 0.00 | 0.00 | 70 | 1004.7 |
| 20260509172604 | 64 | 277 | 5.2 | 11.3 | 0.00 | 0.00 | 0.00 | 69 | 1004.8 |
| 20260509172103 | 63 | 256 | 5.2 | 10.4 | 0.00 | 0.00 | 0.00 | 69 | 1004.9 |
| 20260509171603 | 63 | 275 | 3.5 | 7.8 | 0.00 | 0.00 | 0.00 | 70 | 1004.8 |
| 20260509171103 | 63 | 283 | 3.5 | 7.8 | 0.00 | 0.00 | 0.00 | 67 | 1004.7 |
| 20260509165604 | 63 | 231 | 3.5 | 10.4 | 0.00 | 0.00 | 0.00 | 68 | 1004.9 |
| 20260509164604 | 63 | 271 | 2.6 | 7.8 | 0.00 | 0.00 | 0.00 | 71 | 1004.9 |
| 20260509163603 | 63 | 291 | 3.5 | 13.0 | 0.00 | 0.00 | 0.00 | 71 | 1005.1 |
| 20260509163103 | 64 | 287 | 2.6 | 10.4 | 0.00 | 0.00 | 0.00 | 71 | 1005.2 |
| 20260509162603 | 62 | 277 | 2.6 | 5.2 | 0.00 | 0.00 | 0.00 | 71 | 1005.3 |
| 20260509162103 | 62 | 248 | 3.5 | 8.7 | 0.00 | 0.00 | 0.00 | 72 | 1005.3 |
| 20260509161603 | 61 | 283 | 4.3 | 7.8 | 0.00 | 0.00 | 0.00 | 70 | 1005.3 |
| 20260509161104 | 63 | 292 | 4.3 | 8.7 | 0.00 | 0.00 | 0.00 | 71 | 1005.3 |
| 20260509160603 | 63 | 267 | 2.6 | 7.0 | 0.00 | 0.00 | 0.00 | 72 | 1005.3 |
| 20260509160104 | 63 | 284 | 2.6 | 7.0 | 0.00 | 0.00 | 0.00 | 72 | 1005.2 |
| 20260509155603 | 62 | 282 | 1.7 | 4.3 | 0.00 | 0.00 | 0.00 | 73 | 1005.2 |
| 20260509155104 | 63 | 264 | 2.6 | 8.7 | 0.00 | 0.00 | 0.00 | 72 | 1005.3 |
| 20260509154104 | 63 | 248 | 2.6 | 10.4 | 0.00 | 0.00 | 0.00 | 71 | 1005.5 |
| 20260509153604 | 63 | 240 | 2.6 | 11.3 | 0.00 | 0.00 | 0.00 | 72 | 1005.5 |
| 20260509153103 | 62 | 210 | 1.7 | 4.3 | 0.00 | 0.00 | 0.00 | 78 | 1005.5 |
| 20260509152604 | 60 | 282 | 2.6 | 6.1 | 0.00 | 0.00 | 0.00 | 76 | 1005.7 |
| 20260509152103 | 60 | 266 | 2.6 | 5.2 | 0.00 | 0.00 | 0.00 | 73 | 1005.7 |
| 20260509151104 | 61 | 210 | 1.7 | 7.8 | 0.00 | 0.00 | 0.00 | 77 | 1005.8 |
| 20260509150604 | 61 | 242 | 2.6 | 7.8 | 0.00 | 0.00 | 0.00 | 76 | 1005.9 |
| 20260509150103 | 61 | 274 | 2.6 | 7.0 | 0.00 | 0.00 | 0.00 | 78 | 1005.8 |
| 20260509145604 | 60 | 211 | 2.6 | 10.4 | 0.00 | 0.00 | 0.00 | 77 | 1005.9 |
| 20260509145103 | 58 | 250 | 2.6 | 7.0 | 0.00 | 0.00 | 0.00 | 79 | 1005.8 |
| 20260509144603 | 58 | 250 | 2.6 | 7.0 | 0.00 | 0.00 | 0.00 | 79 | 1005.9 |
| 20260509144104 | 58 | 262 | 3.5 | 7.8 | 0.00 | 0.00 | 0.00 | 79 | 1005.9 |
| 20260509143603 | 59 | 274 | 2.6 | 5.2 | 0.00 | 0.00 | 0.00 | 77 | 1005.9 |
| 20260509143104 | 59 | 239 | 1.7 | 8.7 | 0.00 | 0.00 | 0.00 | 80 | 1005.9 |
| 20260509142603 | 58 | 306 | 2.6 | 6.1 | 0.00 | 0.00 | 0.00 | 80 | 1005.9 |
| 20260509141604 | 58 | 239 | 2.6 | 5.2 | 0.00 | 0.00 | 0.00 | 80 | 1006.0 |
| 20260509141103 | 58 | 262 | 2.6 | 8.7 | 0.00 | 0.00 | 0.00 | 80 | 1006.1 |
| 20260509140603 | 59 | 237 | 3.5 | 7.0 | 0.00 | 0.00 | 0.00 | 80 | 1006.0 |
| 20260509140104 | 58 | 303 | 1.7 | 7.0 | 0.00 | 0.00 | 0.00 | 82 | 1006.1 |
| 20260509135603 | 57 | 256 | 4.3 | 8.7 | 0.00 | 0.00 | 0.00 | 82 | 1006.3 |
| 20260509135103 | 57 | 260 | 4.3 | 10.4 | 0.00 | 0.00 | 0.00 | 82 | 1006.3 |
| 20260509134603 | 57 | 285 | 4.3 | 8.7 | 0.00 | 0.00 | 0.00 | 82 | 1006.4 |
| 20260509134103 | 57 | 257 | 2.6 | 7.8 | 0.00 | 0.00 | 0.00 | 82 | 1006.3 |
| 20260509133605 | 58 | 272 | 2.6 | 5.2 | 0.00 | 0.00 | 0.00 | 81 | 1006.3 |
| 20260509133103 | 58 | 244 | 1.7 | 5.2 | 0.00 | 0.00 | 0.00 | 81 | 1006.3 |
| 20260509132603 | 57 | 241 | 2.6 | 6.1 | 0.00 | 0.00 | 0.00 | 81 | 1006.3 |
| 20260509132103 | 57 | 260 | 1.7 | 10.4 | 0.00 | 0.00 | 0.00 | 83 | 1006.3 |
| 20260509131603 | 57 | 250 | 1.7 | 7.0 | 0.00 | 0.00 | 0.00 | 83 | 1006.4 |
| 20260509131104 | 56 | 233 | 1.7 | 5.2 | 0.00 | 0.00 | 0.00 | 83 | 1006.4 |
| 20260509130604 | 56 | 245 | 4.3 | 8.7 | 0.00 | 0.00 | 0.00 | 84 | 1006.3 |
| 20260509125603 | 54 | 219 | 1.7 | 7.0 | 0.00 | 0.00 | 0.00 | 86 | 1006.4 |
| 20260509125103 | 53 | 239 | 2.6 | 7.8 | 0.00 | 0.00 | 0.00 | 86 | 1006.3 |
| 20260509124604 | 53 | 247 | 1.7 | 7.0 | 0.00 | 0.00 | 0.00 | 86 | 1006.4 |
| 20260509124103 | 53 | 245 | 1.7 | 6.1 | 0.00 | 0.00 | 0.00 | 87 | 1006.4 |
| 20260509123604 | 52 | 250 | 1.7 | 4.3 | 0.00 | 0.00 | 0.00 | 87 | 1006.6 |
| 20260509122605 | 51 | 240 | 0.9 | 5.2 | 0.00 | 0.00 | 0.00 | 87 | 1006.7 |
| 20260509122103 | 51 | 238 | 1.7 | 2.6 | 0.00 | 0.00 | 0.00 | 87 | 1006.8 |
| 20260509121604 | 51 | 245 | 0.9 | 2.6 | 0.00 | 0.00 | 0.00 | 88 | 1006.8 |
| 20260509121104 | 50 | 237 | 0.9 | 4.3 | 0.00 | 0.00 | 0.00 | 88 | 1006.8 |
| 20260509120604 | 50 | 222 | 0.9 | 2.6 | 0.00 | 0.01 | 0.00 | 89 | 1006.8 |
| 20260509120105 | 49 | 220 | 0.9 | 2.6 | 0.00 | 0.01 | 0.00 | 89 | 1006.8 |
| 20260509115603 | 49 | 203 | 1.7 | 2.6 | 0.00 | 0.01 | 0.00 | 89 | 1006.8 |
| 20260509115103 | 48 | 234 | 0.9 | 1.7 | 0.00 | 0.01 | 0.00 | 89 | 1006.7 |
| 20260509114604 | 48 | 224 | 0.9 | 2.6 | 0.00 | 0.01 | 0.00 | 89 | 1006.7 |
| 20260509114104 | 47 | 221 | 0.9 | 2.6 | 0.00 | 0.01 | 0.00 | 89 | 1006.8 |
| 20260509113103 | 47 | 202 | 1.7 | 2.6 | 0.00 | 0.02 | 0.00 | 89 | 1006.6 |
| 20260509112604 | 47 | 212 | 1.7 | 4.3 | 0.00 | 0.02 | 0.00 | 89 | 1006.6 |
| 20260509112104 | 46 | 209 | 1.7 | 2.6 | 0.00 | 0.03 | 0.00 | 89 | 1006.7 |
| 20260509111605 | 46 | 221 | 1.7 | 4.3 | 0.00 | 0.03 | 0.00 | 90 | 1006.8 |
| 20260509111103 | 46 | 216 | 1.7 | 2.6 | 0.00 | 0.04 | 0.00 | 89 | 1006.9 |
| 20260509110104 | 45 | 205 | 0.9 | 2.6 | 0.00 | 0.05 | 0.00 | 89 | 1006.8 |
| 20260509105603 | 45 | 240 | 0.0 | 0.9 | 0.00 | 0.05 | 0.00 | 88 | 1006.9 |
| 20260509104604 | 45 | 240 | 0.9 | 1.7 | 0.00 | 0.05 | 0.00 | 88 | 1007.1 |
| 20260509103603 | 44 | 243 | 1.7 | 2.6 | 0.00 | 0.05 | 0.00 | 88 | 1007.0 |
| 20260509103103 | 44 | 240 | 1.7 | 2.6 | 0.00 | 0.05 | 0.00 | 88 | 1006.9 |
| 20260509102603 | 44 | 242 | 1.7 | 4.3 | 0.00 | 0.05 | 0.00 | 88 | 1007.0 |
| 20260509102103 | 44 | 246 | 2.6 | 4.3 | 0.00 | 0.05 | 0.00 | 87 | 1007.0 |
| 20260509101604 | 44 | 254 | 1.7 | 2.6 | 0.00 | 0.05 | 0.00 | 87 | 1006.9 |
| 20260509101103 | 43 | 245 | 1.7 | 2.6 | 0.00 | 0.05 | 0.00 | 87 | 1006.8 |
| 20260509100604 | 43 | 235 | 0.9 | 1.7 | 0.00 | 0.05 | 0.00 | 87 | 1006.8 |
| 20260509100103 | 43 | 256 | 0.9 | 1.7 | 0.00 | 0.05 | 0.00 | 86 | 1006.8 |
| 20260509095604 | 43 | 256 | 0.0 | 1.7 | 0.00 | 0.05 | 0.00 | 86 | 1006.9 |
| 20260509095103 | 43 | 256 | 0.9 | 1.7 | 0.00 | 0.05 | 0.00 | 86 | 1006.9 |
| 20260509094603 | 43 | 257 | 0.9 | 1.7 | 0.00 | 0.05 | 0.00 | 85 | 1006.8 |
| 20260509093104 | 43 | 245 | 0.9 | 2.6 | 0.00 | 0.05 | 0.00 | 84 | 1006.8 |
| 20260509092604 | 42 | 245 | 0.9 | 1.7 | 0.00 | 0.05 | 0.00 | 84 | 1006.9 |
| 20260509091604 | 42 | 245 | 0.9 | 2.6 | 0.00 | 0.05 | 0.00 | 84 | 1006.9 |
| 20260509091104 | 42 | 238 | 0.9 | 2.6 | 0.00 | 0.05 | 0.00 | 84 | 1006.9 |
| 20260509090605 | 42 | 235 | 0.9 | 2.6 | 0.00 | 0.05 | 0.00 | 84 | 1006.9 |
| 20260509090104 | 42 | 235 | 1.7 | 2.6 | 0.00 | 0.05 | 0.00 | 84 | 1006.9 |
| 20260509085604 | 41 | 234 | 0.9 | 1.7 | 0.00 | 0.05 | 0.00 | 84 | 1006.9 |
| 20260509085104 | 41 | 231 | 0.9 | 1.7 | 0.00 | 0.05 | 0.00 | 84 | 1007.0 |
| 20260509084104 | 41 | 227 | 0.9 | 1.7 | 0.00 | 0.05 | 0.00 | 83 | 1007.1 |
| 20260509083604 | 41 | 226 | 0.9 | 2.6 | 0.00 | 0.05 | 0.00 | 83 | 1007.2 |
| 20260509083104 | 41 | 216 | 0.9 | 1.7 | 0.00 | 0.05 | 0.00 | 83 | 1007.2 |
| 20260509082603 | 41 | 207 | 0.9 | 1.7 | 0.00 | 0.05 | 0.00 | 82 | 1007.2 |
| 20260509082103 | 40 | 207 | 0.9 | 2.6 | 0.00 | 0.05 | 0.00 | 82 | 1007.2 |
| 20260509081604 | 40 | 211 | 1.7 | 2.6 | 0.00 | 0.05 | 0.00 | 82 | 1007.2 |
| 20260509081104 | 40 | 195 | 0.9 | 2.6 | 0.00 | 0.05 | 0.00 | 82 | 1007.3 |
| 20260509080604 | 41 | 197 | 0.9 | 2.6 | 0.00 | 0.05 | 0.00 | 81 | 1007.2 |
| 20260509080104 | 41 | 205 | 0.9 | 2.6 | 0.00 | 0.05 | 0.00 | 81 | 1007.3 |
| 20260509075604 | 41 | 193 | 0.9 | 2.6 | 0.00 | 0.05 | 0.00 | 81 | 1007.3 |
| 20260509075104 | 41 | 205 | 0.9 | 1.7 | 0.00 | 0.05 | 0.00 | 81 | 1007.3 |
| 20260509074603 | 41 | 203 | 0.9 | 1.7 | 0.00 | 0.05 | 0.00 | 81 | 1007.3 |
| 20260509074104 | 40 | 203 | 0.9 | 1.7 | 0.00 | 0.05 | 0.00 | 81 | 1007.4 |
| 20260509073603 | 40 | 201 | 0.9 | 2.6 | 0.00 | 0.05 | 0.00 | 81 | 1007.5 |
| 20260509072604 | 40 | 199 | 0.9 | 1.7 | 0.00 | 0.05 | 0.00 | 80 | 1007.6 |
| 20260509071604 | 40 | 211 | 0.9 | 1.7 | 0.00 | 0.05 | 0.00 | 79 | 1007.6 |
| 20260509071103 | 40 | 198 | 0.9 | 2.6 | 0.00 | 0.05 | 0.00 | 79 | 1007.6 |
| 20260509070604 | 40 | 199 | 0.9 | 2.6 | 0.00 | 0.05 | 0.00 | 79 | 1007.7 |
| 20260509070104 | 40 | 199 | 0.9 | 2.6 | 0.00 | 0.05 | 0.00 | 79 | 1007.7 |
| 20260509065604 | 41 | 191 | 0.9 | 2.6 | 0.00 | 0.05 | 0.00 | 78 | 1007.8 |
| 20260509065103 | 41 | 218 | 0.9 | 1.7 | 0.00 | 0.05 | 0.00 | 78 | 1007.8 |
| 20260509064103 | 41 | 206 | 0.9 | 2.6 | 0.00 | 0.05 | 0.00 | 78 | 1007.9 |
| 20260509063104 | 41 | 222 | 0.9 | 1.7 | 0.00 | 0.05 | 0.00 | 77 | 1008.0 |
| 20260509062603 | 41 | 222 | 0.9 | 1.7 | 0.00 | 0.05 | 0.00 | 77 | 1008.1 |
| 20260509061604 | 41 | 222 | 0.9 | 1.7 | 0.00 | 0.05 | 0.00 | 77 | 1008.3 |
| 20260509060603 | 42 | 226 | 0.9 | 1.7 | 0.00 | 0.05 | 0.00 | 77 | 1008.5 |
| 20260509060104 | 42 | 229 | 0.9 | 2.6 | 0.00 | 0.05 | 0.00 | 77 | 1008.5 |
| 20260509055604 | 42 | 214 | 0.9 | 1.7 | 0.00 | 0.05 | 0.00 | 76 | 1008.6 |
| 20260509055104 | 42 | 208 | 0.9 | 1.7 | 0.00 | 0.05 | 0.00 | 77 | 1008.6 |
| 20260509054603 | 42 | 214 | 1.7 | 4.3 | 0.00 | 0.05 | 0.00 | 76 | 1008.6 |
| 20260509054105 | 42 | 208 | 0.9 | 4.3 | 0.00 | 0.05 | 0.00 | 76 | 1008.6 |
| 20260509052103 | 42 | 245 | 0.9 | 2.6 | 0.00 | 0.05 | 0.00 | 74 | 1008.9 |
| 20260509051604 | 42 | 191 | 2.6 | 4.3 | 0.00 | 0.05 | 0.00 | 74 | 1008.8 |
| 20260509051104 | 42 | 201 | 1.7 | 2.6 | 0.00 | 0.05 | 0.00 | 73 | 1008.9 |
| 20260509050603 | 42 | 202 | 2.6 | 4.3 | 0.00 | 0.05 | 0.00 | 73 | 1009.0 |
| 20260509050104 | 42 | 206 | 1.7 | 2.6 | 0.00 | 0.05 | 0.00 | 73 | 1009.1 |
| 20260509045604 | 42 | 191 | 1.7 | 4.3 | 0.00 | 0.05 | 0.00 | 73 | 1009.2 |
| 20260509045104 | 42 | 216 | 0.9 | 2.6 | 0.00 | 0.05 | 0.00 | 73 | 1009.2 |
| 20260509044604 | 42 | 212 | 0.9 | 2.6 | 0.00 | 0.05 | 0.00 | 73 | 1009.2 |
| 20260509044104 | 42 | 220 | 0.9 | 2.6 | 0.00 | 0.05 | 0.00 | 72 | 1009.2 |
| 20260509043604 | 42 | 211 | 0.9 | 1.7 | 0.00 | 0.05 | 0.00 | 71 | 1009.4 |
| 20260509043104 | 42 | 212 | 0.9 | 2.6 | 0.00 | 0.05 | 0.00 | 71 | 1009.4 |
| 20260509042604 | 42 | 215 | 0.9 | 1.7 | 0.00 | 0.05 | 0.00 | 71 | 1009.4 |
| 20260509042104 | 42 | 215 | 0.9 | 2.6 | 0.00 | 0.05 | 0.00 | 70 | 1009.4 |
| 20260509041604 | 42 | 240 | 0.9 | 1.7 | 0.00 | 0.05 | 0.00 | 70 | 1009.4 |
| 20260509041104 | 42 | 240 | 0.9 | 2.6 | 0.00 | 0.05 | 0.00 | 69 | 1009.5 |
| 20260509035604 | 42 | 249 | 0.9 | 1.7 | 0.00 | 0.05 | 0.05 | 70 | 1009.6 |
| 20260509035103 | 41 | 249 | 0.9 | 1.7 | 0.00 | 0.05 | 0.05 | 70 | 1009.6 |
| 20260509034604 | 41 | 249 | 0.9 | 1.7 | 0.00 | 0.05 | 0.05 | 70 | 1009.7 |
| 20260509034103 | 41 | 249 | 0.9 | 1.7 | 0.00 | 0.05 | 0.05 | 70 | 1009.7 |
| 20260509033603 | 41 | 249 | 0.9 | 1.7 | 0.00 | 0.05 | 0.05 | 70 | 1009.7 |
| 20260509033103 | 41 | 249 | 0.9 | 1.7 | 0.00 | 0.05 | 0.05 | 70 | 1009.7 |
| 20260509032604 | 41 | 249 | 0.9 | 1.7 | 0.00 | 0.05 | 0.05 | 70 | 1009.7 |
| 20260509032105 | 41 | 249 | 0.9 | 1.7 | 0.00 | 0.05 | 0.05 | 69 | 1009.8 |
| 20260509031603 | 41 | 249 | 0.9 | 1.7 | 0.00 | 0.05 | 0.05 | 68 | 1009.9 |
| 20260509031103 | 42 | 249 | 0.9 | 1.7 | 0.00 | 0.05 | 0.05 | 67 | 1009.9 |
| 20260509030604 | 42 | 249 | 0.9 | 1.7 | 0.00 | 0.05 | 0.05 | 67 | 1009.9 |
| 20260509030104 | 42 | 249 | 0.9 | 1.7 | 0.00 | 0.05 | 0.05 | 66 | 1010.0 |
| 20260509025603 | 42 | 249 | 0.9 | 2.6 | 0.00 | 0.05 | 0.05 | 66 | 1009.9 |
| 20260509025104 | 42 | 249 | 0.9 | 1.7 | 0.00 | 0.05 | 0.05 | 67 | 1009.9 |
| 20260509024104 | 42 | 245 | 1.7 | 2.6 | 0.00 | 0.05 | 0.05 | 68 | 1010.0 |
| 20260509023604 | 42 | 224 | 1.7 | 2.6 | 0.00 | 0.05 | 0.05 | 69 | 1010.0 |
| 20260509023104 | 42 | 250 | 0.9 | 2.6 | 0.00 | 0.05 | 0.05 | 69 | 1010.0 |
| 20260509022104 | 42 | 251 | 0.9 | 2.6 | 0.00 | 0.05 | 0.05 | 68 | 1009.8 |
| 20260509021604 | 43 | 251 | 0.9 | 1.7 | 0.00 | 0.06 | 0.05 | 68 | 1009.8 |
| 20260509020604 | 43 | 251 | 0.0 | 1.7 | 0.00 | 0.07 | 0.05 | 68 | 1009.8 |
| 20260509020104 | 44 | 251 | 0.9 | 1.7 | 0.00 | 0.08 | 0.05 | 67 | 1009.8 |
| 20260509015603 | 44 | 251 | 0.9 | 1.7 | 0.00 | 0.08 | 0.05 | 66 | 1009.8 |
| 20260509015104 | 45 | 251 | 0.9 | 1.7 | 0.00 | 0.08 | 0.05 | 66 | 1009.7 |
| 20260509014604 | 45 | 251 | 0.9 | 1.7 | 0.00 | 0.08 | 0.05 | 65 | 1009.7 |
| 20260509014104 | 45 | 251 | 0.0 | 0.0 | 0.00 | 0.09 | 0.05 | 64 | 1009.7 |
| 20260509013104 | 46 | 251 | 0.9 | 1.7 | 0.00 | 0.09 | 0.05 | 62 | 1009.6 |
| 20260509012604 | 47 | 251 | 0.9 | 1.7 | 0.00 | 0.09 | 0.05 | 60 | 1009.6 |
| 20260509011604 | 47 | 251 | 0.9 | 2.6 | 0.00 | 0.09 | 0.05 | 58 | 1009.7 |
| 20260509011103 | 48 | 240 | 0.9 | 1.7 | 0.00 | 0.09 | 0.05 | 58 | 1009.7 |
| 20260509005605 | 49 | 262 | 0.9 | 1.7 | 0.00 | 0.09 | 0.05 | 58 | 1009.6 |
| 20260509005104 | 49 | 258 | 1.7 | 2.6 | 0.00 | 0.09 | 0.05 | 58 | 1009.6 |
| 20260509004603 | 50 | 253 | 1.7 | 2.6 | 0.00 | 0.09 | 0.05 | 57 | 1009.6 |
| 20260509004104 | 50 | 238 | 1.7 | 2.6 | 0.00 | 0.09 | 0.05 | 57 | 1009.5 |
| 20260509003604 | 50 | 251 | 0.9 | 1.7 | 0.00 | 0.09 | 0.05 | 56 | 1009.5 |
| 20260509002604 | 51 | 239 | 1.7 | 2.6 | 0.00 | 0.09 | 0.05 | 54 | 1009.4 |
| 20260509002104 | 51 | 248 | 1.7 | 2.6 | 0.00 | 0.10 | 0.05 | 54 | 1009.3 |
| 20260509001604 | 52 | 264 | 0.9 | 2.6 | 0.00 | 0.10 | 0.05 | 53 | 1009.3 |
| 20260509001104 | 52 | 259 | 0.9 | 2.6 | 0.00 | 0.12 | 0.05 | 52 | 1009.2 |
| 20260509000604 | 52 | 257 | 1.7 | 4.3 | 0.00 | 0.13 | 0.05 | 52 | 1009.3 |
| 20260509000104 | 53 | 252 | 0.9 | 5.2 | 0.00 | 0.14 | 0.05 | 51 | 1009.2 |
| 20260508235604 | 53 | 261 | 2.6 | 6.1 | 0.00 | 0.15 | 0.05 | 51 | 1009.2 |
| 20260508235103 | 53 | 254 | 1.7 | 4.3 | 0.00 | 0.16 | 0.05 | 50 | 1009.2 |
| 20260508234605 | 54 | 213 | 1.7 | 5.2 | 0.00 | 0.16 | 0.05 | 49 | 1009.1 |
| 20260508234104 | 54 | 246 | 2.6 | 6.1 | 0.00 | 0.16 | 0.05 | 50 | 1009.1 |
| 20260508233603 | 54 | 244 | 3.5 | 7.8 | 0.00 | 0.16 | 0.05 | 48 | 1009.1 |
| 20260508233104 | 55 | 246 | 2.6 | 7.0 | 0.00 | 0.16 | 0.05 | 49 | 1009.2 |
| 20260508232104 | 55 | 236 | 2.6 | 6.1 | 0.00 | 0.16 | 0.05 | 48 | 1009.1 |
| 20260508231603 | 55 | 247 | 3.5 | 7.8 | 0.00 | 0.16 | 0.05 | 49 | 1009.1 |
| 20260508231103 | 56 | 267 | 1.7 | 7.0 | 0.00 | 0.16 | 0.05 | 49 | 1009.1 |
| 20260508230104 | 56 | 277 | 0.9 | 2.6 | 0.00 | 0.16 | 0.05 | 51 | 1009.0 |
| 20260508225603 | 56 | 286 | 2.6 | 6.1 | 0.00 | 0.16 | 0.05 | 49 | 1009.1 |
| 20260508225103 | 57 | 261 | 2.6 | 5.2 | 0.00 | 0.16 | 0.05 | 48 | 1009.0 |
| 20260508224602 | 57 | 244 | 2.6 | 5.2 | 0.00 | 0.16 | 0.05 | 50 | 1009.1 |
| 20260508224103 | 57 | 287 | 1.7 | 4.3 | 0.00 | 0.16 | 0.05 | 50 | 1009.1 |
| 20260508223603 | 57 | 288 | 2.6 | 6.1 | 0.00 | 0.16 | 0.05 | 49 | 1009.1 |
| 20260508223103 | 57 | 263 | 1.7 | 4.3 | 0.00 | 0.16 | 0.05 | 49 | 1009.1 |
| 20260508222602 | 57 | 293 | 1.7 | 4.3 | 0.00 | 0.16 | 0.05 | 50 | 1009.1 |
| 20260508222102 | 57 | 256 | 2.6 | 4.3 | 0.00 | 0.16 | 0.05 | 50 | 1009.1 |
| 20260508221603 | 57 | 268 | 1.7 | 7.0 | 0.00 | 0.16 | 0.05 | 50 | 1009.1 |
| 20260508221103 | 57 | 252 | 1.7 | 2.6 | 0.00 | 0.16 | 0.05 | 52 | 1009.2 |
| 20260508215103 | 58 | 305 | 2.6 | 5.2 | 0.00 | 0.16 | 0.05 | 49 | 1009.3 |
| 20260508214102 | 58 | 270 | 4.3 | 8.7 | 0.00 | 0.16 | 0.05 | 52 | 1009.3 |
| 20260508213602 | 58 | 333 | 2.6 | 8.7 | 0.00 | 0.16 | 0.05 | 50 | 1009.3 |
| 20260508212603 | 58 | 301 | 3.5 | 7.0 | 0.00 | 0.16 | 0.05 | 54 | 1009.3 |
| 20260508212103 | 57 | 310 | 2.6 | 7.0 | 0.00 | 0.16 | 0.05 | 52 | 1009.3 |